This is the latest recevied weather packets stored in our database for station/object W4OTS. If no packets are shown the sender has not sent any weather packets the latest 10 day(s).
| Time | Temp. | Humidity | Pressure | Rain* | Wind** | Luminosity | Snow |
|---|---|---|---|---|---|---|---|
| 1778081224 | 20° C | 80% | 1015.6 hPa | 0 mm | - | 140 W/m² | - |
| 1778080922 | 20° C | 81% | 1015.6 hPa | 0 mm | - | 147 W/m² | - |
| 1778080621 | 20° C | 80% | 1015.9 hPa | 0 mm | - | 202 W/m² | - |
| 1778080316 | 20° C | 81% | 1015.7 hPa | 0 mm | - | 303 W/m² | - |
| 1778080013 | 19.44° C | 82% | 1015.7 hPa | 0 mm | - | 301 W/m² | - |
| 1778079710 | 19.44° C | 81% | 1015.8 hPa | 0 mm | - | 289 W/m² | - |
| 1778079407 | 19.44° C | 82% | 1015.6 hPa | 0 mm | - | 236 W/m² | - |
| 1778079104 | 18.89° C | 83% | 1015.5 hPa | 0 mm | - | 262 W/m² | - |
| 1778078802 | 18.89° C | 83% | 1015.5 hPa | 0 mm | - | 210 W/m² | - |
| 1778078498 | 18.89° C | 84% | 1015.5 hPa | 0 mm | - | 208 W/m² | - |
| 1778078195 | 18.33° C | 85% | 1015.5 hPa | 0 mm | - | 168 W/m² | - |
| 1778077893 | 18.33° C | 85% | 1015.6 hPa | 0 mm | - | 115 W/m² | - |
| 1778077592 | 18.33° C | 84% | 1015.4 hPa | 0 mm | - | 69 W/m² | - |
| 1778077290 | 18.33° C | 85% | 1015.6 hPa | 0 mm | - | 74 W/m² | - |
| 1778076986 | 18.33° C | 83% | 1015.8 hPa | 0 mm | - | 112 W/m² | - |
| 1778076685 | 18.33° C | 83% | 1016 hPa | 0 mm | - | 176 W/m² | - |
| 1778076382 | 18.33° C | 84% | 1015.7 hPa | 0 mm | - | 153 W/m² | - |
| 1778076079 | 17.78° C | 85% | 1015.9 hPa | 0 mm | - | 105 W/m² | - |
| 1778075776 | 17.78° C | 85% | 1015.9 hPa | 0 mm | - | 75 W/m² | - |
| 1778075472 | 17.78° C | 86% | 1016 hPa | 0 mm | - | 101 W/m² | - |
| 1778075169 | 17.78° C | 86% | 1015.8 hPa | 0 mm | - | 83 W/m² | - |
| 1778074864 | 17.78° C | 85% | 1015.7 hPa | 0 mm | - | 69 W/m² | - |
| 1778074562 | 17.78° C | 85% | 1015.8 hPa | 0 mm | - | 101 W/m² | - |
| 1778074259 | 17.78° C | 85% | 1015.7 hPa | 0 mm | - | 154 W/m² | - |
| 1778073956 | 17.22° C | 86% | 1015.3 hPa | 0 mm | - | 95 W/m² | - |
* Rain latest hour (hover to see other rain measurements)
** Current wind speed in m/s (hover to see current wind gust speed)